• MPC Preparation (Info)

  • MPEC 2017-F193: 2017 FQ102

    The following Minor Planet Electronic Circular may be linked-to from your own Web pages, but must not otherwise be redistributed electronically.

    A form allowing access to any MPEC is at the bottom of this page.


    Read MPEC 2017-F192 Read MPEC 2017-F194


    M.P.E.C. 2017-F193                               Issued 2017 Mar. 29, 15:55 UT
    
         The Minor Planet Electronic Circulars contain information on unusual
             minor planets and routine data on comets.  They are published
        on behalf of Division F of the International Astronomical Union by the
              Minor Planet Center, Smithsonian Astrophysical Observatory,
                              Cambridge, MA 02138, U.S.A.
    
                 Prepared using the Tamkin Foundation Computer Network
    
                                  MPC@CFA.HARVARD.EDU
                URL https://www.minorplanetcenter.net/    ISSN 1523-6714
    
                                      2017 FQ102
    
    Observations:
         K17FA2Q* C2017 03 27.51080 13 56 29.831-17 03 54.71         21.3 wLEF193F51
         K17FA2Q  C2017 03 27.52079 13 56 27.881-17 03 57.84         21.7 wLEF193F51
         K17FA2Q  C2017 03 27.54080 13 56 23.986-17 04 04.07         21.4 wLEF193F51
         K17FA2Q KC2017 03 27.87011013 55 28.01 -17 05 06.8          21.1 GUEF193K92
         K17FA2Q KC2017 03 27.87145113 55 27.75 -17 05 07.4          21.3 GUEF193K92
         K17FA2Q KC2017 03 27.88349813 55 25.50 -17 05 11.5          21.1 GUEF193K92
         K17FA2Q KC2017 03 27.88618013 55 25.00 -17 05 12.3          21.1 GUEF193K92
         K17FA2Q _C2017 03 28.49724513 53 36.415-17 08 44.73         21.3 GUEF193568
         K17FA2Q _C2017 03 28.49823113 53 36.227-17 08 45.03         21.2 GUEF193568
         K17FA2Q _C2017 03 28.49921813 53 36.037-17 08 45.28         21.1 GUEF193568
         K17FA2Q KC2017 03 28.56344913 53 25.34 -17 08 19.9          20.6 RtEF193474
         K17FA2Q KC2017 03 28.56696813 53 24.67 -17 08 20.9          20.9 RtEF193474
         K17FA2Q KC2017 03 28.57048713 53 24.00 -17 08 22.0          20.7 RtEF193474
         K17FA2Q  C2017 03 29.32617 13 51 15.48 -17 12 16.5          20.9 RoEF193926
         K17FA2Q  C2017 03 29.33161 13 51 14.49 -17 12 17.9          21.2 RoEF193926
         K17FA2Q  C2017 03 29.33833 13 51 13.28 -17 12 19.9          20.8 RoEF193926
         K17FA2Q KC2017 03 29.34151 13 51 12.64 -17 12 21.0          21.0 RoEF193691
         K17FA2Q KC2017 03 29.35285 13 51 10.61 -17 12 23.2                oEF193691
         K17FA2Q KC2017 03 29.36420 13 51 08.52 -17 12 25.9                oEF193691
    
    Observer details:
    474 Mount John Observatory, Lake Tekapo.  Observers A. C. Gilmore,
        P. M. Kilmartin.  Measurer P. M. Kilmartin.  1.0-m f/7.7 reflector + CCD.
    568 Mauna Kea.  Observers R. J. Wainscoat, C. Wipper.  Measurers M. Micheli,
        R. J. Wainscoat.  3.6-m Canada-France-Hawaii Telescope + CCD.
    691 Steward Observatory, Kitt Peak.  Observer T. H. Bressi.  0.9-m f/3
        reflector + CCD.
    926 Tenagra II Observatory.  Observers M. Schwartz, P. R. Holvorcem.  Measurer
        M. Schwartz.  0.41-m f/3.75 astrograph + CCD, 0.81-m f/7 Ritchey-Chretien
        + CCD.
    F51 Pan-STARRS 1, Haleakala.  Observers B. Gibson, T. Goggia, S. Kahale,
        T. Lowe, A. Schultz, M. Willman.  Measurers K. Chambers, S. Chastel,
        L. Denneau, H. Flewelling, M. Huber, E. Lilly, E. Magnier, R. Wainscoat,
        C. Waters, R. Weryk.  1.8-m Ritchey-Chretien + CCD.
    K92 Sutherland-LCOGT B.  Observers T. Lister, S. Greenstreet, E. Gomez.
        Measurer T. Lister.  1.0-m f/8 Ritchey-Chretien + CCD.
    
    Orbital elements:
    2017 FQ102                                               Earth MOID = 0.0314 AU
    Epoch 2017 Feb. 16.0 TT = JDT 2457800.5                 MPC
    M   8.03185              (2000.0)            P               Q
    n   0.36264290     Peri.  117.28777     -0.49047081     -0.87145103
    a   1.9475260      Node     2.09298     +0.76314515     -0.43138563
    e   0.5358906      Incl.    5.32568     +0.42077056     -0.23340854
    P   2.72           H   23.3           G   0.15           U   6
    Residuals in seconds of arc
    170327 F51  0.1-  0.0     170328 568  0.1+  0.1+    170329 926  0.3+  0.2+
    170327 F51  0.1-  0.0     170328 568  0.1+  0.0     170329 926  0.6+  0.2-
    170327 F51  0.2+  0.1-    170328 568  0.0   0.0     170329 691  0.6-  0.3-
    170327 K92  0.1+  0.1+    170328 474  0.1+  0.0     170329 691  0.1+  0.2+
    170327 K92  0.1-  0.1-    170328 474  0.1-  0.0     170329 691  0.1-  0.1+
    170327 K92  0.0   0.0     170328 474  0.4-  0.2-
    170327 K92  0.0   0.2+    170329 926  0.2+  0.3+
    
    Ephemeris:
    2017 FQ102               a,e,i = 1.95, 0.54, 5                   q = 0.9039
    Date    TT    R. A. (2000) Decl.     Delta      r     Elong.  Phase     V
    2017 02 27    16 21 10.9 -02 25 29   0.09296 1.0016    94.3    80.4    21.0
    ...
    2017 03 14    14 46 24.9 -14 00 08   0.1466  1.0939   129.9    44.2    21.0
    ...
    2017 03 22    14 14 24.1 -16 18 37   0.1828  1.1500   144.4    30.3    21.2
    ...
    2017 03 28    13 55 03.4 -17 06 00   0.2137  1.1940   154.1    21.4    21.4
    2017 03 29    13 52 10.3 -17 10 30   0.2193  1.2015   155.6    20.1    21.4
    2017 03 30    13 49 22.7 -17 14 11   0.2249  1.2090   157.1    18.8    21.4
    ...
    2017 04 05    13 34 32.7 -17 22 37   0.2611  1.2545   165.2    11.8    21.6
    ...
    2017 04 13    13 19 35.1 -17 09 56   0.3163  1.3164   171.7     6.3    21.9
    ...
    2017 04 28    13 04 09.0 -16 23 07   0.4431  1.4335   161.3    13.0    23.1
    
    A. U. Tomatic                (C) Copyright 2017 MPC           M.P.E.C. 2017-F193
    

    Read MPEC 2017-F192 Read MPEC 2017-F194


    MPEC number:

    Enter an MPEC number in one of the following forms:

    • 1997-B01 (the full form)
    • J97B01 (the packed version of the full form)
    • B01 (the abbreviated form)